This is the latest recevied weather packets stored in our database for station/object KG7DQI-13. If no packets are shown the sender has not sent any weather packets the latest 10 day(s).
| Time | Temp. | Humidity | Pressure | Rain* | Wind** | Luminosity | Snow |
|---|---|---|---|---|---|---|---|
| 1788445676 | 4.44° C | 92% | 910 hPa | 0 mm | - | 26 W/m² | - |
| 1788444766 | 3.89° C | 92% | 910 hPa | 0 mm | - | 16 W/m² | - |
| 1788442071 | 3.89° C | 91% | 910.1 hPa | 0 mm | - | 0 W/m² | - |
| 1788440251 | 2.78° C | 92% | 909.9 hPa | 0 mm | - | 0 W/m² | - |
| 1788437583 | 2.78° C | 91% | 910.1 hPa | 0 mm | - | 0 W/m² | - |
| 1788433951 | 3.33° C | 88% | 910.1 hPa | 0 mm | - | 0 W/m² | - |
| 1788431244 | 5° C | 86% | 910 hPa | 0 mm | - | 0 W/m² | - |
| 1788430355 | 5.56° C | 84% | 910 hPa | 0 mm | - | 0 W/m² | - |
| 1788429441 | 6.11° C | 84% | 909.9 hPa | 0 mm | - | 0 W/m² | - |
| 1788428518 | 6.67° C | 83% | 909.8 hPa | 0 mm | - | 0 W/m² | - |
| 1788427570 | 7.22° C | 81% | 909.8 hPa | 0 mm | - | 0 W/m² | - |
| 1788425759 | 8.33° C | 78% | 909.9 hPa | 0 mm | - | 0 W/m² | - |
| 1788424011 | 8.89° C | 78% | 909.7 hPa | 0 mm | - | 0 W/m² | - |
| 1788423080 | 8.89° C | 78% | 909.8 hPa | 0 mm | - | 0 W/m² | - |
| 1788421220 | 9.44° C | 76% | 909.8 hPa | 0 mm | - | 0 W/m² | - |
| 1788419427 | 10° C | 77% | 909.8 hPa | 0 mm | - | 0 W/m² | - |
| 1788418535 | 10.56° C | 77% | 909.5 hPa | 0 mm | - | 0 W/m² | - |
| 1788417646 | 10.56° C | 76% | 909.3 hPa | 0 mm | - | 0 W/m² | - |
| 1788416707 | 10.56° C | 76% | 909.3 hPa | 0 mm | - | 0 W/m² | - |
| 1788415783 | 10.56° C | 77% | 909.2 hPa | 0 mm | - | 0 W/m² | - |
| 1788413034 | 10.56° C | 86% | 909.1 hPa | 0 mm | - | 0 W/m² | - |
| 1788412105 | 11.11° C | 84% | 908.8 hPa | 0 mm | - | 0 W/m² | - |
| 1788411184 | 10.56° C | 82% | 909.5 hPa | 0 mm | - | 0 W/m² | - |
| 1788409401 | 10.56° C | 84% | 908.9 hPa | 0 mm | - | 0 W/m² | - |
| 1788408481 | 10.56° C | 83% | 908.7 hPa | 0 mm | - | 0 W/m² | - |
* Rain latest hour (hover to see other rain measurements)
** Current wind speed in m/s (hover to see current wind gust speed)